Starlink 31635

operational
NORAD ID: 59511 Int'l Des: 2024-073 Owner: SPXS Country: US Constellation: starlink
LEOCIRCULAR

About Starlink 31635

Description loading...

Live Position

Loading 3D Globe...

Upcoming Passes

Altitude History

Altitude vs Time

uPlot chart will show altitude changes over time

Two-Line Element Set

1 59511U 24073A 25348.64575593 -.00001269 00000-0 -36618-4 0 9991
2 59511 43.0068 77.9322 0001432 289.7654 70.3043 15.27557104 93179
Epoch: Dec 14, 2025 • Age: 29 hours

Current Status

Altitude 495.6 km
Velocity 7.62 km/s
Sub-Earth Point -43.04°S, 62.63°W
Launch Date Apr 17, 2024
Age 1.6 years
Type internet

Technical Details

Classification Payload
Mass 730.00 kg
Dry Mass 700.00 kg
Total Mass 730.00 kg
Length 0.30 m
Diameter 4.10 m
Span 29.00 m
Shape Box + pan
Manufacturer SPXS
Bus Type Starlink V2M
Phase Status In Orbit
Owner/State SPXS/US

Large Constellations

Loading constellations...